When you browse on this site, cookies collect data to enhance your experience and personalize the content and advertising you see.
Visit our Privacy Policy to learn more. By continuing to use the site, you agree to this use of cookies and data.
  • In United Kingdom
  • List of Countries
  • For 7 days
  • Water Temperature
  • Satellite Maps
  • Weather Map
  • Weather Widgets
  • user-avatar
    Login

    Hourly Weather Yopal

    Today, 20 June, Thursday

    Time Temperature Precipitation Wind Pressure Humidity
    00:00 +24°C° 0.9 mm 1 mps 731 mmHg 96%
    01:00 +24°C° 0.9 mm 1 mps 731 mmHg 97%
    02:00 +24°C° 0.6 mm 1 mps 731 mmHg 97%
    03:00 +24°C° 0.6 mm 1 mps 731 mmHg 96%
    04:00 +24°C° 0.6 mm 1 mps 731 mmHg 96%
    05:00 +24°C° 0.5 mm 1 mps 731 mmHg 96%
    06:00 +24°C° 0.5 mm 1 mps 731 mmHg 96%
    07:00 +24°C° 0.5 mm 1 mps 732 mmHg 97%
    08:00 +24°C° 0.7 mm 1 mps 732 mmHg 96%
    09:00 +25°C° 0.7 mm 1 mps 733 mmHg 95%
    10:00 +25°C° 0.7 mm 1 mps 733 mmHg 94%
    11:00 +25°C° 0.3 mm 1 mps 732 mmHg 93%
    12:00 +26°C° 0.3 mm 1 mps 732 mmHg 92%
    13:00 +24°C° 0.3 mm 0 mps 731 mmHg 91%
    14:00 +25°C° 0.3 mm 0 mps 731 mmHg 89%
    15:00 +25°C° 0.3 mm 0 mps 731 mmHg 86%
    16:00 +26°C° 0.3 mm 0 mps 731 mmHg 83%
    17:00 +27°C° 0.8 mm 1 mps 731 mmHg 86%
    18:00 +25°C° 0.8 mm 1 mps 731 mmHg 90%
    19:00 +24°C° 0.8 mm 2 mps 731 mmHg 94%
    20:00 +24°C° 0.1 mm 1 mps 732 mmHg 94%
    21:00 +24°C° 0.1 mm 1 mps 733 mmHg 94%
    22:00 +21°C° 0.1 mm 0 mps 733 mmHg 94%
    23:00 +23°C° 0.2 mm 1 mps 733 mmHg 95%

    Tomorrow, 21 June, Friday

    Time Temperature Precipitation Wind Pressure Humidity
    00:00 +23°C° 0.2 mm 1 mps 732 mmHg 96%
    01:00 +23°C° 0.2 mm 1 mps 732 mmHg 96%
    02:00 +23°C° 0.2 mm 1 mps 732 mmHg 96%
    03:00 +21°C° 0.2 mm 0 mps 732 mmHg 95%
    04:00 +21°C° 0.2 mm 0 mps 731 mmHg 95%
    05:00 +21°C° 0.1 mm 0 mps 732 mmHg 94%
    06:00 +22°C° 0.1 mm 0 mps 732 mmHg 94%
    07:00 +22°C° 0.1 mm 0 mps 733 mmHg 93%
    08:00 +23°C° 0.1 mm 0 mps 733 mmHg 91%
    09:00 +26°C° 0.1 mm 1 mps 733 mmHg 88%
    10:00 +27°C° 0.1 mm 1 mps 734 mmHg 85%
    11:00 +27°C° 0.5 mm 1 mps 733 mmHg 85%
    12:00 +28°C° 0.5 mm 2 mps 733 mmHg 84%
    13:00 +28°C° 0.5 mm 2 mps 732 mmHg 83%
    14:00 +27°C° 0.5 mm 2 mps 732 mmHg 86%
    15:00 +26°C° 0.5 mm 2 mps 731 mmHg 90%
    16:00 +25°C° 0.5 mm 1 mps 731 mmHg 93%
    17:00 +25°C° 0.2 mm 1 mps 731 mmHg 94%
    18:00 +24°C° 0.2 mm 1 mps 732 mmHg 94%
    19:00 +22°C° 0.2 mm 0 mps 732 mmHg 94%
    20:00 +22°C° 0.3 mm 0 mps 733 mmHg 94%
    21:00 +22°C° 0.3 mm 0 mps 733 mmHg 95%
    22:00 +21°C° 0.3 mm 0 mps 734 mmHg 95%
    23:00 +21°C° 0.3 mm 0 mps 734 mmHg 95%

    Day after tomorrow, 22 June, Saturday

    Time Temperature Precipitation Wind Pressure Humidity
    00:00 +21°C° 0.3 mm 0 mps 733 mmHg 95%
    01:00 +21°C° 0.3 mm 0 mps 733 mmHg 96%
    02:00 +21°C° 0.1 mm 0 mps 733 mmHg 95%
    03:00 +21°C° 0.1 mm 0 mps 732 mmHg 95%
    04:00 +21°C° 0.1 mm 0 mps 732 mmHg 94%
    05:00 +21°C° 0.1 mm 0 mps 733 mmHg 94%
    06:00 +22°C° 0.1 mm 0 mps 733 mmHg 93%
    07:00 +22°C° 0.1 mm 0 mps 734 mmHg 93%
    08:00 +23°C° 0.1 mm 0 mps 734 mmHg 90%
    09:00 +24°C° 0.1 mm 0 mps 734 mmHg 88%
    10:00 +25°C° 0.1 mm 0 mps 734 mmHg 86%
    11:00 +28°C° 0.2 mm 1 mps 734 mmHg 83%
    12:00 +28°C° 0.2 mm 1 mps 733 mmHg 80%
    13:00 +29°C° 0.2 mm 1 mps 733 mmHg 77%
    14:00 +29°C° 0.1 mm 1 mps 732 mmHg 79%
    15:00 +28°C° 0.1 mm 1 mps 731 mmHg 81%
    16:00 +28°C° 0.1 mm 2 mps 730 mmHg 84%
    17:00 +27°C° 0.1 mm 1 mps 731 mmHg 88%
    18:00 +25°C° 0.1 mm 1 mps 731 mmHg 92%
    19:00 +22°C° 0.1 mm 0 mps 732 mmHg 97%
    20:00 +22°C° 0.3 mm 0 mps 732 mmHg 96%
    21:00 +22°C° 0.3 mm 0 mps 733 mmHg 95%
    22:00 +22°C° 0.3 mm 0 mps 734 mmHg 94%
    23:00 +22°C° 0.3 mm 0 mps 733 mmHg 93%

    23 June, Sunday

    Time Temperature Precipitation Wind Pressure Humidity
    00:00 +22°C° 0.3 mm 0 mps 733 mmHg 92%
    01:00 +22°C° 0.3 mm 0 mps 733 mmHg 92%
    02:00 +22°C° 0.4 mm 0 mps 732 mmHg 91%
    03:00 +21°C° 0.4 mm 0 mps 732 mmHg 91%
    04:00 +21°C° 0.4 mm 0 mps 732 mmHg 90%
    05:00 +22°C° 0.3 mm 0 mps 732 mmHg 90%
    06:00 +22°C° 0.3 mm 0 mps 733 mmHg 90%
    07:00 +22°C° 0.3 mm 0 mps 733 mmHg 89%
    08:00 +23°C° 0.4 mm 0 mps 733 mmHg 88%
    09:00 +26°C° 0.4 mm 1 mps 733 mmHg 87%
    10:00 +27°C° 0.4 mm 1 mps 734 mmHg 86%
    11:00 +28°C° 1.4 mm 1 mps 733 mmHg 87%
    12:00 +28°C° 1.4 mm 1 mps 732 mmHg 88%
    13:00 +28°C° 1.4 mm 1 mps 732 mmHg 88%
    14:00 +28°C° 1.3 mm 1 mps 731 mmHg 90%
    15:00 +27°C° 1.3 mm 1 mps 731 mmHg 92%
    16:00 +26°C° 1.3 mm 1 mps 730 mmHg 94%
    17:00 +23°C° 0.4 mm 0 mps 730 mmHg 95%
    18:00 +23°C° 0.4 mm 0 mps 731 mmHg 95%
    19:00 +22°C° 0.4 mm 0 mps 731 mmHg 96%
    20:00 +22°C° 0.1 mm 0 mps 731 mmHg 96%
    21:00 +22°C° 0.1 mm 0 mps 732 mmHg 95%
    22:00 +22°C° 0.1 mm 0 mps 732 mmHg 95%
    23:00 +22°C° 0.2 mm 0 mps 732 mmHg 95%

    24 June, Monday

    Time Temperature Precipitation Wind Pressure Humidity
    00:00 +22°C° 0.2 mm 0 mps 731 mmHg 95%
    01:00 +24°C° 0.2 mm 1 mps 731 mmHg 96%
    02:00 +21°C° 0 mm 0 mps 731 mmHg 96%
    03:00 +21°C° 0 mm 0 mps 731 mmHg 96%
    04:00 +21°C° 0 mm 0 mps 730 mmHg 96%
    05:00 +21°C° 0 mm 0 mps 731 mmHg 96%
    06:00 +22°C° 0 mm 0 mps 731 mmHg 95%
    07:00 +24°C° 0 mm 1 mps 732 mmHg 95%
    08:00 +24°C° 0.2 mm 1 mps 732 mmHg 95%
    09:00 +24°C° 0.2 mm 1 mps 732 mmHg 95%
    10:00 +25°C° 0.2 mm 1 mps 732 mmHg 95%
    11:00 +23°C° 0.6 mm 0 mps 732 mmHg 95%
    12:00 +23°C° 0.6 mm 0 mps 731 mmHg 95%
    13:00 +23°C° 0.6 mm 0 mps 731 mmHg 95%
    14:00 +24°C° 0.2 mm 0 mps 730 mmHg 92%
    15:00 +24°C° 0.2 mm 0 mps 730 mmHg 89%
    16:00 +25°C° 0.2 mm 0 mps 729 mmHg 85%
    17:00 +24°C° 0.1 mm 0 mps 730 mmHg 89%
    18:00 +23°C° 0.1 mm 0 mps 730 mmHg 92%
    19:00 +22°C° 0.1 mm 0 mps 730 mmHg 95%
    20:00 +22°C° 0.2 mm 0 mps 731 mmHg 95%
    21:00 +22°C° 0.2 mm 0 mps 731 mmHg 94%
    22:00 +22°C° 0.2 mm 0 mps 732 mmHg 94%
    23:00 +22°C° 0.1 mm 0 mps 731 mmHg 94%

    25 June, Tuesday

    Time Temperature Precipitation Wind Pressure Humidity
    00:00 +22°C° 0.1 mm 0 mps 731 mmHg 93%
    01:00 +22°C° 0.1 mm 0 mps 730 mmHg 93%
    02:00 +22°C° 0 mm 0 mps 730 mmHg 92%
    03:00 +22°C° 0 mm 0 mps 730 mmHg 92%
    04:00 +22°C° 0 mm 0 mps 730 mmHg 91%
    05:00 +22°C° 0 mm 0 mps 730 mmHg 91%
    06:00 +22°C° 0 mm 0 mps 731 mmHg 91%
    07:00 +23°C° 0 mm 0 mps 731 mmHg 90%
    08:00 +23°C° 0 mm 0 mps 731 mmHg 88%
    09:00 +26°C° 0 mm 1 mps 732 mmHg 86%
    10:00 +27°C° 0 mm 1 mps 732 mmHg 84%
    11:00 +27°C° 0.2 mm 1 mps 731 mmHg 84%
    12:00 +25°C° 0.2 mm 0 mps 731 mmHg 84%
    13:00 +26°C° 0.2 mm 0 mps 730 mmHg 84%
    14:00 +28°C° 0.1 mm 1 mps 729 mmHg 83%
    15:00 +28°C° 0.1 mm 1 mps 729 mmHg 82%
    16:00 +28°C° 0.1 mm 2 mps 729 mmHg 81%
    17:00 +27°C° 0.2 mm 1 mps 729 mmHg 86%
    18:00 +26°C° 0.2 mm 1 mps 729 mmHg 91%
    19:00 +25°C° 0.2 mm 1 mps 730 mmHg 96%
    20:00 +24°C° 0 mm 1 mps 730 mmHg 95%
    21:00 +24°C° 0 mm 1 mps 731 mmHg 94%
    22:00 +24°C° 0 mm 1 mps 731 mmHg 93%
    23:00 +24°C° 0.3 mm 1 mps 731 mmHg 93%
    Show more